This is the latest recevied weather packets stored in our database for station/object VE9LJW. If no packets are shown the sender has not sent any weather packets the latest 10 day(s).
| Time | Temp. | Humidity | Pressure | Rain* | Wind** | Luminosity | Snow |
|---|---|---|---|---|---|---|---|
| 1778020596 | 17.78° C | 75% | 1002.6 hPa | 0 mm | - | 32 W/m² | - |
| 1778020291 | 17.78° C | 75% | 1002.7 hPa | 0 mm | - | 35 W/m² | - |
| 1778019987 | 17.78° C | 74% | 1002.7 hPa | 0 mm | - | 43 W/m² | - |
| 1778019684 | 18.33° C | 74% | 1002.6 hPa | 0 mm | - | 53 W/m² | - |
| 1778019381 | 18.33° C | 74% | 1002.7 hPa | 0 mm | - | 65 W/m² | - |
| 1778019077 | 18.33° C | 74% | 1002.3 hPa | 0 mm | - | 71 W/m² | - |
| 1778018775 | 18.33° C | 74% | 1002.2 hPa | 0 mm | - | 77 W/m² | - |
| 1778018472 | 18.89° C | 73% | 1002.3 hPa | 0 mm | - | 91 W/m² | - |
| 1778018170 | 18.89° C | 72% | 1002.3 hPa | 0 mm | - | 100 W/m² | - |
| 1778017868 | 18.89° C | 72% | 1002.3 hPa | 0 mm | - | 93 W/m² | - |
| 1778017566 | 18.89° C | 72% | 1002.6 hPa | 0 mm | - | 97 W/m² | - |
| 1778017262 | 18.89° C | 71% | 1002.4 hPa | 0 mm | - | 104 W/m² | - |
| 1778016960 | 18.89° C | 71% | 1002.4 hPa | 0 mm | - | 109 W/m² | - |
| 1778016656 | 19.44° C | 70% | 1002.3 hPa | 0 mm | - | 110 W/m² | - |
| 1778016352 | 19.44° C | 69% | 1002.2 hPa | 0 mm | - | 119 W/m² | - |
| 1778016050 | 20° C | 69% | 1002 hPa | 0 mm | - | 122 W/m² | - |
| 1778015747 | 20° C | 68% | 1002.2 hPa | 0 mm | - | 131 W/m² | - |
| 1778015444 | 20° C | 67% | 1002.2 hPa | 0 mm | - | 114 W/m² | - |
| 1778015140 | 20.56° C | 67% | 1002.1 hPa | 0 mm | - | 117 W/m² | - |
| 1778014838 | 20.56° C | 65% | 1002.1 hPa | 0 mm | - | 132 W/m² | - |
| 1778014535 | 21.11° C | 64% | 1002.1 hPa | 0 mm | - | 165 W/m² | - |
| 1778014232 | 21.67° C | 63% | 1002.2 hPa | 0 mm | - | 169 W/m² | - |
| 1778013930 | 21.67° C | 62% | 1001.9 hPa | 0 mm | - | 219 W/m² | - |
| 1778013627 | 21.11° C | 63% | 1002 hPa | 0 mm | - | 302 W/m² | - |
| 1778013324 | 21.67° C | 62% | 1001.9 hPa | 0 mm | - | 237 W/m² | - |
* Rain latest hour (hover to see other rain measurements)
** Current wind speed in m/s (hover to see current wind gust speed)